COSMOS 1527

Satellite information

Favourite Embed

Satellite Type and Status

PAYLOADIN ORBIT

Key statistics

Satellite COSMOS 1527 at a glance.

Uptime

15223

Days in orbit

Revolutions

≈ 12.5

Per day

Orbit

LEO

Low Earth Orbit

Inclination

74.0

Latest

Satellite identification and parameters

Extended collection of information and parameters for COSMOS 1527.

Object identification

Identified? True

Debris? False

Object name: COSMOS 1527

International designator: 1984-001F

Object number (NORAD): 14616

Object ID (CCSDS): 14616

Country: COMMONWEALTH OF INDEPENDENT STATES (CIS)

Current information (Y/N): Y

RCS size: MEDIUM

Orbital parameters

Period: 115.099 minutes

Inclination: 74.0064 deg

SMA: 7838.038 km

Apoapsis: 1461.617 km

Periapsis: 1458.19 km

RAAN: 283.5741 deg

Eccentricy: 0.00021861

Argument of periapsis: 233.74 deg

Mean anomaly: 241.9984 deg

Mean motion: 12.51099069 rev/day

Mean motion (dot): 0.00000004 rev/day2

B* drag term: 0.00013069422 1/REarth

Two-line elements (TLE)

Creation date: Sept. 8, 2025, 6:18 p.m.

Reference frame: TEME

Reference center: EARTH

Epoch: Sept. 8, 2025, 1:41 p.m. UTC

TLE line 0: 0 COSMOS 1527

TLE line 1: 1 14616U 84001F 25251.57069804 .00000004 00000-0 13069-3 0 9991

TLE line 2: 2 14616 74.0064 283.5741 0002186 233.7400 241.9984 12.51099069492157

Live tracking on map

Real-time ground track for satellite COSMOS 1527.

In-orbit conjunctions

There are no conjunctions computed for COSMOS 1527, at the moment. Check back to stay up to date, as we update our databases every day.

Go to all conjunctions

Associated space launch

Military communications satellites

COSMOS 1527 was lifted into orbit during the mission ‘Kosmos-3M | Strela-1M 273-280’, on board a Kosmos-3M space rocket.

The launch took place on Jan. 5, 1984, 8:09 p.m. from 132/2.

For more information about the launch, click the button.

Launch to space Kosmos-3M | Strela-1M 273-280
Kosmos-3M | Strela-1M 273-280

Agency: N/A

Status: Launch Successful

Launch date: Jan. 5, 1984, 8:09 p.m. UTC

Rocket: Kosmos-3M

Launch pad: 132/2

Location: Plesetsk Cosmodrome, Russian Federation

...

Latest news about this satellite

There are no fresh news available about this satellite. Check back as we update our databases every day.


Newsletter sign-up

Weekly statistics, charts and insights to help you stay on top of the space industry.